[[{"header":{"parameterUnit":"m.s-1","parameterCategory":1,"la1":30.2991,"la2":30.254,"lo1":-89.0895,"lo2":-89.0444,"dy":0.0017,"dx":0.0017,"nx":28,"ny":28,"refTime":"2025-07-19T03:00:00:Z","depth":0,"parameterNumber":2,"parameterNumberName":"U-component_of_WINDS"},"data":[0,0,0,0,0,0,0,0,0,0,0,0,0,0,0,0,0,0,0,0,0,0,0,0,0,0,0,0,0,0,0,0,0,0,0,0,0,0,0,0,0,0,0,0,0,0,0,0,0,0,0,0,0,0,0,0,0,0,0.8147,0.8147,0,0.8146,0.8146,0.8146,0.8117,0.8116,0.8115,0.8114,0.8114,0.8114,0.8115,0,0,0,0,0,0,0,0,0,0,0,0,0,0.8121,0.8122,0.8147,0.8147,0.8147,0.8146,0.8146,0.8146,0.8117,0.8116,0.8115,0.8114,0.8113,0.8114,0.8115,0,0,0,0,0,0,0,0,0,0,0,0,0,0.8128,0.8122,0.8147,0.8132,0.813,0.8146,0.8146,0.8146,0.8117,0.8116,0.8115,0.8113,0.8113,0.8114,0.8115,0.8145,0,0,0.8118,0.8119,0,0,0,0,0,0,0,0,0.8127,0.8128,0.8134,0.8133,0.8131,0.813,0.8137,0.8146,0.8117,0.8122,0.8114,0.8113,0.812,0.8121,0.8123,0.8145,0.8145,0.8119,0.8119,0.812,0.812,0,0,0,0,0,0,0,0.8127,0.8128,0.8146,0.8134,0.8132,0.8125,0.8125,0.8139,0.8128,0.8122,0.8119,0.812,0.8119,0.8122,0.8123,0.8145,0.8119,0.8119,0.812,0.8121,0.8191,0.8193,0,0,0,0,0,0,0.8128,0.8128,0.8146,0.8146,0.8126,0.8126,0.8126,0.8132,0.8127,0.8126,0.8121,0.8118,0.8121,0.8122,0.8123,0.8157,0.812,0.8121,0.8121,0.819,0.8192,0.8193,0,0,0,0,0,0,0.8128,0.813,0.8146,0.8137,0.8138,0.8128,0.8135,0.8132,0.8135,0.8127,0.8125,0.8126,0.812,0.8121,0.814,0.8157,0.8121,0.8122,0.8189,0.8191,0.8192,0.8227,0,0,0,0,0,0,0.8127,0.813,0.8142,0.8137,0.8139,0.8164,0.8136,0.8133,0.8137,0.8134,0.8131,0.8129,0.8119,0.8138,0.8141,0.8158,0.8123,0.8187,0.819,0.8192,0.8224,0.8229,0.8234,0,0,0,0,0,0.8127,0.8151,0.8142,0.8145,0.8153,0.8165,0.8166,0.8154,0.8139,0.815,0.8144,0.8129,0.8155,0.814,0.8143,0.816,0.8186,0.8189,0.8192,0.8222,0.8228,0.8234,0,0,0,0,0,0,0.8158,0.815,0.814,0.8165,0.8166,0.816,0.8173,0.8161,0.8166,0.8163,0.8148,0.8147,0.8168,0.8166,0.8151,0.8189,0.8168,0.8171,0.819,0.8196,0.8201,0.8201,0.8124,0,0,0,0,0,0.8168,0.8178,0.8171,0.8193,0.8194,0.8184,0.8188,0.8179,0.8179,0.818,0.8176,0.8176,0.8184,0.819,0.8197,0.8224,0.8222,0.8237,0.8242,0.8246,0.8249,0.8263,0.8269,0.8202,0.8202,0.8202,0,0,0.8188,0.8185,0.8192,0.8199,0.8199,0.821,0.8184,0.8197,0.8205,0.8182,0.8199,0.8196,0.8196,0.8219,0.8228,0.8217,0.8267,0.825,0.8253,0.8254,0.8266,0.8273,0.8278,0.8204,0.8204,0.8204,0,0,0.823,0.8229,0.8247,0.8247,0.8247,0.824,0.8245,0.8241,0.8238,0.8255,0.8238,0.8247,0.8261,0.8262,0.8264,0.8307,0.8293,0.831,0.8336,0.835,0.8355,0.836,0.8375,0.838,0.8313,0.8313,0.8313,0,0.8255,0.8271,0.8258,0.8272,0.8275,0.8255,0.8273,0.8274,0.8276,0.8279,0.8266,0.8284,0.8282,0.8305,0.8315,0.8318,0.8322,0.831,0.8355,0.836,0.8364,0.8378,0.8384,0.8315,0.8315,0.8314,0.8314,0,0.8302,0.8313,0.8328,0.833,0.8335,0.8351,0.8341,0.8347,0.8338,0.8332,0.835,0.8347,0.8353,0.8358,0.8349,0.8379,0.8372,0.8358,0.8336,0.8373,0.8386,0.8391,0.8318,0.8317,0.8316,0.8316,0,0,0.8363,0.8359,0.8364,0.8365,0.8364,0.8372,0.8387,0.8393,0.8399,0.8401,0.8414,0.8426,0.8413,0.8416,0.8406,0.8418,0.8452,0.8402,0.8402,0.8411,0.8485,0.8496,0.8502,0.8443,0.8444,0.8445,0.8485,0,0.8404,0.8429,0.8418,0.8445,0.8455,0.8436,0.8449,0.8449,0.8445,0.8453,0.8447,0.8456,0.8438,0.844,0.8451,0.8445,0.8466,0.8442,0.8454,0.8454,0.8454,0.8509,0.852,0.8558,0.849,0.8491,0.8492,0,0.8455,0.8459,0.8487,0.8483,0.8487,0.8499,0.8504,0.8512,0.8512,0.8508,0.8511,0.8499,0.8513,0.8492,0.8511,0.8495,0.8499,0.8497,0.8498,0.8499,0.8475,0.8511,0.857,0.8576,0.85,0.8499,0.8498,0,0.8496,0.851,0.8528,0.8529,0.8526,0.8535,0.8534,0.8533,0.8537,0.8541,0.8544,0.8549,0.8552,0.8557,0.8547,0.8532,0.8568,0.8546,0.8564,0.8565,0.8572,0.8572,0.8633,0.8576,0.8576,0.8576,0.8575,0,0.8543,0.856,0.8546,0.8558,0.8577,0.8564,0.8583,0.858,0.8579,0.8589,0.8573,0.8583,0.8569,0.8577,0.8569,0.8587,0.8588,0.8585,0.8583,0.8586,0.8587,0.8588,0.8585,0.8577,0.8577,0.8576,0.8576,0,0.8593,0.8584,0.8602,0.8598,0.8597,0.8611,0.8607,0.8617,0.8612,0.8625,0.8627,0.8618,0.8627,0.8617,0.8626,0.862,0.8644,0.8637,0.8644,0.8642,0.8661,0.8659,0.8725,0.8733,0.8671,0.8672,0.8672,0,0.8623,0.8636,0.8633,0.8638,0.8638,0.8648,0.8652,0.864,0.8645,0.8646,0.8656,0.8664,0.867,0.8685,0.8679,0.8685,0.8679,0.8702,0.868,0.8683,0.8679,0.8678,0.8679,0.8706,0.8707,0.8708,0.8708,0,0.8677,0.8672,0.8679,0.8685,0.869,0.8694,0.8697,0.8702,0.869,0.8696,0.8706,0.871,0.8719,0.8726,0.8731,0.873,0.8717,0.8715,0.872,0.8723,0.8726,0.8725,0.8655,0.8714,0.8713,0.8713,0.8712,0.8712,0.8717,0.8728,0.8727,0.8736,0.8737,0.8739,0.8749,0.8744,0.8752,0.8758,0.875,0.8761,0.8761,0.8766,0.8766,0.8775,0.8765,0.8772,0.8774,0.8776,0.8778,0.8725,0.8776,0.8776,0.8776,0.8775,0.8775,0,0.877,0.8769,0.8777,0.8781,0.8788,0.8775,0.8777,0.8784,0.8794,0.8795,0.8801,0.8811,0.8819,0.8814,0.882,0.8828,0.8822,0.883,0.8829,0.8829,0.8787,0.8782,0.8835,0.8835,0.8835,0.8835,0.8835,0.8835,0.8798,0.8816,0.8811,0.8829,0.8827,0.8838,0.884,0.8843,0.8844,0.8856,0.8863,0.8859,0.8858,0.8864,0.887,0.8869,0.8872,0.8882,0.8878,0.8838,0.8832,0.8827,0.8822,0.8882,0.8882,0.8919,0.892,0.892]},{"header":{"parameterUnit":"m.s-1","parameterCategory":1,"la1":30.2991,"la2":30.254,"lo1":-89.0895,"lo2":-89.0444,"dy":0.0017,"dx":0.0017,"nx":28,"ny":28,"refTime":"2025-07-19T03:00:00:Z","depth":0,"parameterNumber":3,"parameterNumberName":"V-component_of_WINDS"},"data":[0,0,0,0,0,0,0,0,0,0,0,0,0,0,0,0,0,0,0,0,0,0,0,0,0,0,0,0,0,0,0,0,0,0,0,0,0,0,0,0,0,0,0,0,0,0,0,0,0,0,0,0,0,0,0,0,0,0,4.1419,4.1419,0,4.1418,4.1418,4.1418,4.1375,4.1374,4.1373,4.1372,4.1371,4.1372,4.1373,0,0,0,0,0,0,0,0,0,0,0,0,0,4.1383,4.1384,4.1419,4.1419,4.1419,4.1418,4.1418,4.1418,4.1375,4.1374,4.1372,4.1371,4.1371,4.1372,4.1373,0,0,0,0,0,0,0,0,0,0,0,0,0,4.1392,4.1384,4.1419,4.1397,4.1395,4.1418,4.1418,4.1418,4.1375,4.1374,4.1372,4.137,4.1371,4.1372,4.1374,4.1417,0,0,4.1378,4.1379,0,0,0,0,0,0,0,0,4.1391,4.1393,4.1401,4.1399,4.1397,4.1395,4.1405,4.1418,4.1376,4.1383,4.1372,4.137,4.1381,4.1381,4.1385,4.1417,4.1417,4.1379,4.138,4.138,4.1381,0,0,0,0,0,0,0,4.1391,4.1393,4.1419,4.1401,4.1398,4.1388,4.1387,4.1408,4.1391,4.1382,4.1379,4.138,4.1379,4.1383,4.1384,4.1417,4.1379,4.138,4.1381,4.1381,4.1485,4.1486,0,0,0,0,0,0,4.1393,4.1393,4.1419,4.1419,4.139,4.139,4.1389,4.1397,4.1391,4.1388,4.1381,4.1378,4.1382,4.1383,4.1384,4.1434,4.138,4.1382,4.1383,4.1483,4.1485,4.1487,0,0,0,0,0,0,4.1393,4.1396,4.1419,4.1405,4.1407,4.1392,4.1402,4.1398,4.1402,4.139,4.1387,4.1388,4.138,4.1382,4.1409,4.1434,4.1382,4.1384,4.1481,4.1484,4.1486,4.1535,0,0,0,0,0,0,4.1392,4.1396,4.1413,4.1406,4.1408,4.1444,4.1403,4.1399,4.1405,4.1401,4.1396,4.1394,4.1379,4.1407,4.1411,4.1435,4.1385,4.1479,4.1482,4.1485,4.1531,4.1539,4.1546,0,0,0,0,0,4.1391,4.1427,4.1414,4.1417,4.1428,4.1445,4.1447,4.1429,4.1407,4.1424,4.1416,4.1394,4.1431,4.141,4.1414,4.1439,4.1477,4.1481,4.1485,4.1528,4.1538,4.1546,0,0,0,0,0,0,4.1437,4.1425,4.1411,4.1446,4.1447,4.1438,4.1458,4.144,4.1447,4.1443,4.1421,4.142,4.1451,4.1448,4.1425,4.1481,4.145,4.1455,4.1481,4.1491,4.1498,4.1498,4.1386,0,0,0,0,0,4.1452,4.1467,4.1455,4.1487,4.1489,4.1474,4.148,4.1466,4.1467,4.1467,4.1461,4.1462,4.1474,4.1482,4.1492,4.1531,4.1529,4.155,4.1557,4.1564,4.1568,4.1587,4.1596,4.15,4.15,4.15,0,0,4.1482,4.1477,4.1488,4.1497,4.1496,4.1511,4.1474,4.1493,4.1504,4.147,4.1495,4.1491,4.149,4.1523,4.1538,4.1522,4.1594,4.1569,4.1574,4.1575,4.1592,4.1602,4.161,4.1503,4.1503,4.1502,0,0,4.1544,4.1542,4.1568,4.1568,4.1567,4.1557,4.1563,4.1557,4.1552,4.1577,4.1552,4.1565,4.1586,4.1586,4.1589,4.1651,4.1631,4.1655,4.1694,4.1713,4.172,4.1727,4.1748,4.1756,4.166,4.166,4.166,0,4.1581,4.1604,4.1584,4.1604,4.1608,4.1578,4.1603,4.1604,4.1607,4.1611,4.1593,4.1618,4.1616,4.1648,4.1663,4.1667,4.1673,4.1655,4.1721,4.1727,4.1733,4.1753,4.1761,4.1663,4.1662,4.1662,4.1662,0,4.1649,4.1665,4.1686,4.1689,4.1696,4.1719,4.1702,4.1711,4.1697,4.1688,4.1713,4.171,4.1718,4.1725,4.1711,4.1755,4.1745,4.1725,4.1693,4.1745,4.1764,4.1772,4.1667,4.1666,4.1665,4.1664,0,0,4.1741,4.1732,4.174,4.174,4.1737,4.1749,4.177,4.1778,4.1786,4.1789,4.1806,4.1824,4.1805,4.1808,4.1794,4.1811,4.1859,4.1788,4.1788,4.1801,4.1907,4.1922,4.1931,4.1846,4.1848,4.1849,4.1906,0,4.1801,4.1836,4.1819,4.1856,4.187,4.1841,4.186,4.1859,4.1852,4.1863,4.1854,4.1867,4.1841,4.1843,4.1858,4.185,4.188,4.1846,4.1862,4.1862,4.1862,4.1941,4.1957,4.2011,4.1914,4.1915,4.1916,0,4.1875,4.188,4.1919,4.1912,4.1917,4.1934,4.194,4.195,4.1949,4.1943,4.1946,4.1928,4.1948,4.1918,4.1945,4.1922,4.1927,4.1924,4.1926,4.1926,4.1892,4.1943,4.2028,4.2036,4.1927,4.1926,4.1925,0,4.1938,4.1954,4.1979,4.1981,4.1973,4.1986,4.1983,4.1981,4.1986,4.1991,4.1994,4.2002,4.2006,4.2012,4.1996,4.1975,4.2025,4.1993,4.202,4.202,4.2031,4.2031,4.2118,4.2036,4.2036,4.2036,4.2036,0,4.2006,4.203,4.2007,4.2023,4.2049,4.2029,4.2056,4.205,4.2048,4.2061,4.2037,4.2051,4.2029,4.204,4.2028,4.2052,4.2055,4.2049,4.2046,4.2051,4.2052,4.2054,4.205,4.2038,4.2037,4.2037,4.2037,0,4.208,4.2065,4.209,4.2081,4.2079,4.2099,4.2091,4.2105,4.2095,4.2113,4.2116,4.2101,4.2113,4.2098,4.2109,4.2101,4.2133,4.2124,4.2133,4.2131,4.2158,4.2155,4.2249,4.226,4.2172,4.2173,4.2173,0,4.2124,4.2142,4.2134,4.2141,4.214,4.2152,4.2158,4.2138,4.2145,4.2144,4.2158,4.2168,4.2174,4.2195,4.2185,4.2193,4.2184,4.2216,4.2185,4.219,4.2183,4.2182,4.2184,4.2223,4.2224,4.2225,4.2225,0,4.2204,4.2195,4.2204,4.2209,4.2216,4.222,4.2222,4.2229,4.2209,4.2217,4.2229,4.2234,4.2245,4.2254,4.226,4.2257,4.2238,4.2235,4.2242,4.2247,4.2251,4.2249,4.215,4.2233,4.2232,4.2232,4.2231,4.2231,4.2264,4.2278,4.2274,4.2284,4.2283,4.2286,4.2298,4.2289,4.2299,4.2305,4.2293,4.2308,4.2306,4.231,4.231,4.2321,4.2307,4.2317,4.2319,4.2321,4.2325,4.225,4.2322,4.2322,4.2322,4.2322,4.2321,0,4.2341,4.2337,4.2347,4.235,4.2357,4.2338,4.2339,4.2347,4.236,4.2359,4.2366,4.2379,4.2388,4.2379,4.2387,4.2397,4.2388,4.24,4.2398,4.2398,4.2338,4.2331,4.2407,4.2407,4.2407,4.2406,4.2406,4.2406,4.2383,4.2406,4.2397,4.2419,4.2415,4.2428,4.243,4.2432,4.2431,4.2447,4.2454,4.2448,4.2444,4.245,4.2458,4.2455,4.2459,4.2473,4.2467,4.2411,4.2402,4.2394,4.2388,4.2474,4.2474,4.2526,4.2527,4.2527]}]]